| time (UTC) | temp F | wind direction | speed MPH | gust MPH | rain 1hr in | rain 24hr in | rain mn in | humidity % | barometer mb |
| 20260906104916 | 79 | 180 | 2.0 | 5.0 | 0.00 | 0.00 | 0.00 | 81 | 1012.3 |
| 20260906103916 | 79 | 0.0 | 0.0 | 0.00 | 0.00 | 0.00 | 80 | 1012.1 | |
| 20260906102916 | 79 | 0.0 | 0.0 | 0.00 | 0.00 | 0.00 | 80 | 1012.2 | |
| 20260906101936 | 79 | 0.0 | 0.0 | 0.00 | 0.00 | 0.00 | 80 | 1012.1 | |
| 20260906100916 | 80 | 0.0 | 0.0 | 0.00 | 0.00 | 0.00 | 79 | 1012.0 | |
| 20260906095916 | 80 | 0.0 | 0.0 | 0.00 | 0.00 | 0.00 | 79 | 1012.0 | |
| 20260906094916 | 80 | 180 | 2.0 | 2.0 | 0.00 | 0.00 | 0.00 | 78 | 1011.9 |
| 20260906093916 | 80 | 0.0 | 0.0 | 0.00 | 0.00 | 0.00 | 78 | 1011.8 | |
| 20260906092916 | 80 | 0.0 | 0.0 | 0.00 | 0.00 | 0.00 | 78 | 1011.8 | |
| 20260906091916 | 80 | 0.0 | 0.0 | 0.00 | 0.00 | 0.00 | 78 | 1011.7 | |
| 20260906090936 | 80 | 203 | 1.0 | 2.0 | 0.00 | 0.00 | 0.00 | 77 | 1011.7 |
| 20260906085916 | 80 | 203 | 1.0 | 2.0 | 0.00 | 0.00 | 0.00 | 77 | 1011.5 |
| 20260906084916 | 81 | 180 | 1.0 | 2.0 | 0.00 | 0.00 | 0.00 | 77 | 1011.4 |
| 20260906083915 | 81 | 180 | 1.0 | 2.0 | 0.00 | 0.00 | 0.00 | 77 | 1011.4 |
| 20260906082915 | 81 | 203 | 3.0 | 6.0 | 0.00 | 0.00 | 0.00 | 76 | 1011.5 |
| 20260906081915 | 81 | 0.0 | 1.0 | 0.00 | 0.00 | 0.00 | 76 | 1011.4 | |
| 20260906080915 | 81 | 203 | 3.0 | 5.0 | 0.00 | 0.00 | 0.00 | 76 | 1011.5 |
| 20260906075916 | 81 | 203 | 3.0 | 6.0 | 0.00 | 0.00 | 0.00 | 76 | 1011.4 |
| 20260906074915 | 82 | 180 | 4.0 | 6.0 | 0.00 | 0.00 | 0.00 | 75 | 1011.4 |
| 20260906073915 | 82 | 203 | 5.0 | 7.0 | 0.00 | 0.00 | 0.00 | 74 | 1011.4 |
| 20260906072915 | 82 | 158 | 5.0 | 8.0 | 0.00 | 0.00 | 0.00 | 74 | 1011.7 |
| 20260906071915 | 82 | 180 | 5.0 | 8.0 | 0.00 | 0.00 | 0.00 | 73 | 1011.5 |
| 20260906070935 | 82 | 203 | 4.0 | 6.0 | 0.00 | 0.00 | 0.00 | 73 | 1011.6 |
| 20260906065915 | 83 | 203 | 2.0 | 4.0 | 0.00 | 0.00 | 0.00 | 72 | 1011.4 |
| 20260906064915 | 83 | 203 | 4.0 | 6.0 | 0.00 | 0.00 | 0.00 | 72 | 1011.5 |
| 20260906063935 | 83 | 0 | 3.0 | 5.0 | 0.00 | 0.00 | 0.00 | 71 | 1011.6 |
| 20260906062915 | 83 | 0 | 4.0 | 5.0 | 0.00 | 0.00 | 0.00 | 70 | 1011.8 |
| 20260906061915 | 84 | 225 | 1.0 | 3.0 | 0.00 | 0.00 | 0.00 | 70 | 1011.7 |
| 20260906060915 | 84 | 225 | 2.0 | 4.0 | 0.00 | 0.00 | 0.00 | 70 | 1011.7 |
| 20260906055915 | 84 | 225 | 4.0 | 5.0 | 0.00 | 0.00 | 0.00 | 69 | 1011.6 |
| 20260906054915 | 84 | 203 | 3.0 | 5.0 | 0.00 | 0.00 | 0.00 | 69 | 1011.6 |
| 20260906053935 | 84 | 180 | 4.0 | 6.0 | 0.00 | 0.00 | 0.00 | 69 | 1011.7 |
| 20260906052915 | 84 | 180 | 4.0 | 6.0 | 0.00 | 0.00 | 0.00 | 68 | 1011.8 |
| 20260906051917 | 85 | 203 | 5.0 | 7.0 | 0.00 | 0.00 | 0.00 | 67 | 1011.8 |
| 20260906050917 | 85 | 180 | 6.0 | 8.0 | 0.00 | 0.00 | 0.00 | 67 | 1011.8 |
| 20260906045917 | 85 | 180 | 5.0 | 7.0 | 0.00 | 0.00 | 0.00 | 66 | 1011.6 |
| 20260906044917 | 85 | 225 | 4.0 | 7.0 | 0.00 | 0.00 | 0.00 | 66 | 1011.6 |
| 20260906043917 | 86 | 180 | 4.0 | 7.0 | 0.00 | 0.00 | 0.00 | 65 | 1011.8 |
| 20260906042916 | 86 | 180 | 4.0 | 8.0 | 0.00 | 0.00 | 0.00 | 65 | 1011.7 |
| 20260906041917 | 86 | 180 | 3.0 | 5.0 | 0.00 | 0.00 | 0.00 | 64 | 1011.6 |
| 20260906040917 | 86 | 203 | 6.0 | 9.0 | 0.00 | 0.00 | 0.00 | 64 | 1011.6 |
| 20260906035917 | 87 | 203 | 5.0 | 6.0 | 0.00 | 0.00 | 0.00 | 64 | 1011.6 |
| 20260906034917 | 87 | 0 | 5.0 | 6.0 | 0.00 | 0.00 | 0.00 | 63 | 1011.8 |
| 20260906033916 | 87 | 203 | 5.0 | 6.0 | 0.00 | 0.00 | 0.00 | 63 | 1011.7 |
| 20260906032917 | 87 | 180 | 4.0 | 7.0 | 0.00 | 0.00 | 0.00 | 63 | 1011.6 |
| 20260906031917 | 88 | 0 | 8.0 | 11.0 | 0.00 | 0.00 | 0.00 | 62 | 1011.8 |
| 20260906030917 | 88 | 0 | 4.0 | 7.0 | 0.00 | 0.00 | 0.00 | 62 | 1011.7 |
| 20260906025917 | 88 | 158 | 3.0 | 5.0 | 0.00 | 0.00 | 0.00 | 61 | 1011.4 |
| 20260906024916 | 89 | 180 | 5.0 | 8.0 | 0.00 | 0.00 | 0.00 | 61 | 1011.4 |
| 20260906023917 | 89 | 0 | 6.0 | 9.0 | 0.00 | 0.00 | 0.00 | 60 | 1011.4 |
| 20260906022916 | 90 | 0 | 7.0 | 9.0 | 0.00 | 0.00 | 0.00 | 58 | 1011.3 |
| 20260906021916 | 90 | 0 | 5.0 | 8.0 | 0.00 | 0.00 | 0.00 | 56 | 1010.9 |
| 20260906020916 | 91 | 0 | 5.0 | 9.0 | 0.00 | 0.00 | 0.00 | 54 | 1010.7 |
| 20260906015916 | 93 | 0 | 9.0 | 13.0 | 0.00 | 0.00 | 0.00 | 51 | 1010.6 |
| 20260906014916 | 94 | 0 | 6.0 | 8.0 | 0.00 | 0.00 | 0.00 | 48 | 1010.4 |
| 20260906013916 | 94 | 135 | 3.0 | 5.0 | 0.00 | 0.00 | 0.00 | 48 | 1010.3 |
| 20260906012917 | 94 | 135 | 2.0 | 2.0 | 0.00 | 0.00 | 0.00 | 47 | 1010.0 |
| 20260906011917 | 95 | 135 | 3.0 | 4.0 | 0.00 | 0.00 | 0.00 | 47 | 1010.1 |
| 20260906010916 | 95 | 0 | 1.0 | 2.0 | 0.00 | 0.00 | 0.00 | 46 | 1010.0 |
| 20260906005916 | 96 | 135 | 1.0 | 2.0 | 0.00 | 0.00 | 0.00 | 45 | 1010.0 |
| 20260906004916 | 96 | 0 | 2.0 | 3.0 | 0.00 | 0.00 | 0.00 | 44 | 1009.8 |
| 20260906003916 | 97 | 90 | 2.0 | 3.0 | 0.00 | 0.00 | 0.00 | 43 | 1009.9 |
| 20260906002916 | 97 | 90 | 1.0 | 2.0 | 0.00 | 0.00 | 0.00 | 42 | 1009.9 |
| 20260906001916 | 98 | 113 | 2.0 | 2.0 | 0.00 | 0.00 | 0.00 | 42 | 1009.9 |
| 20260906000916 | 98 | 135 | 3.0 | 4.0 | 0.00 | 0.00 | 0.00 | 41 | 1009.8 |
| 20260905235916 | 98 | 0 | 6.0 | 9.0 | 0.00 | 0.00 | 0.00 | 40 | 1009.7 |
| 20260905234916 | 98 | 0 | 7.0 | 10.0 | 0.00 | 0.00 | 0.00 | 41 | 1009.6 |
| 20260905233936 | 98 | 0 | 5.0 | 7.0 | 0.00 | 0.00 | 0.00 | 41 | 1009.5 |
| 20260905232956 | 98 | 0 | 7.0 | 10.0 | 0.00 | 0.00 | 0.00 | 41 | 1009.5 |
| 20260905231916 | 99 | 113 | 2.0 | 6.0 | 0.00 | 0.00 | 0.00 | 42 | 1009.6 |
| 20260905230916 | 99 | 158 | 1.0 | 2.0 | 0.00 | 0.00 | 0.00 | 42 | 1009.6 |
| 20260905225916 | 99 | 0 | 6.0 | 8.0 | 0.00 | 0.00 | 0.00 | 42 | 1009.6 |
| 20260905224916 | 99 | 180 | 5.0 | 7.0 | 0.00 | 0.00 | 0.00 | 42 | 1009.6 |
| 20260905223916 | 98 | 0 | 5.0 | 6.0 | 0.00 | 0.00 | 0.00 | 42 | 1009.6 |
| 20260905222916 | 99 | 0 | 7.0 | 10.0 | 0.00 | 0.00 | 0.00 | 41 | 1009.6 |
| 20260905221916 | 99 | 180 | 4.0 | 6.0 | 0.00 | 0.00 | 0.00 | 41 | 1009.7 |
| 20260905220916 | 98 | 248 | 2.0 | 5.0 | 0.00 | 0.00 | 0.00 | 42 | 1009.7 |
| 20260905215916 | 99 | 338 | 3.0 | 5.0 | 0.00 | 0.00 | 0.00 | 41 | 1009.9 |
| 20260905214916 | 99 | 203 | 3.0 | 5.0 | 0.00 | 0.00 | 0.00 | 42 | 1010.0 |
| 20260905213916 | 98 | 135 | 6.0 | 8.0 | 0.00 | 0.00 | 0.00 | 43 | 1009.9 |
| 20260905212916 | 97 | 158 | 2.0 | 4.0 | 0.00 | 0.00 | 0.00 | 43 | 1010.0 |
| 20260905211916 | 98 | 68 | 3.0 | 5.0 | 0.00 | 0.00 | 0.00 | 43 | 1010.2 |
| 20260905210916 | 98 | 135 | 1.0 | 3.0 | 0.00 | 0.00 | 0.00 | 43 | 1010.2 |
| 20260905205915 | 98 | 0 | 5.0 | 6.0 | 0.00 | 0.00 | 0.00 | 42 | 1010.3 |
| 20260905204915 | 98 | 68 | 3.0 | 6.0 | 0.00 | 0.00 | 0.00 | 43 | 1010.6 |
| 20260905203916 | 98 | 0 | 4.0 | 7.0 | 0.00 | 0.00 | 0.00 | 43 | 1010.7 |
| 20260905202916 | 98 | 23 | 1.0 | 2.0 | 0.00 | 0.00 | 0.00 | 43 | 1010.7 |
| 20260905201935 | 98 | 135 | 5.0 | 7.0 | 0.00 | 0.00 | 0.00 | 44 | 1010.9 |
| 20260905200915 | 99 | 158 | 2.0 | 5.0 | 0.00 | 0.00 | 0.00 | 43 | 1011.0 |
| 20260905195916 | 98 | 135 | 4.0 | 7.0 | 0.00 | 0.00 | 0.00 | 44 | 1011.2 |
| 20260905194935 | 97 | 158 | 3.0 | 6.0 | 0.00 | 0.00 | 0.00 | 45 | 1011.5 |
| 20260905193915 | 97 | 0 | 7.0 | 10.0 | 0.00 | 0.00 | 0.00 | 46 | 1011.7 |
| 20260905192915 | 97 | 0 | 5.0 | 7.0 | 0.00 | 0.00 | 0.00 | 46 | 1011.8 |
| 20260905191916 | 96 | 90 | 2.0 | 4.0 | 0.00 | 0.00 | 0.00 | 48 | 1011.9 |
| 20260905190915 | 95 | 0 | 7.0 | 10.0 | 0.00 | 0.00 | 0.00 | 48 | 1012.2 |
| 20260905185916 | 95 | 68 | 6.0 | 8.0 | 0.00 | 0.00 | 0.00 | 49 | 1012.3 |
| 20260905184915 | 96 | 0 | 6.0 | 8.0 | 0.00 | 0.00 | 0.00 | 48 | 1012.6 |
| 20260905183936 | 96 | 225 | 6.0 | 7.0 | 0.00 | 0.00 | 0.00 | 47 | 1012.7 |
| 20260905182935 | 95 | 293 | 3.0 | 6.0 | 0.00 | 0.00 | 0.00 | 50 | 1012.9 |
| 20260905181915 | 95 | 270 | 4.0 | 6.0 | 0.00 | 0.00 | 0.00 | 49 | 1012.9 |
| 20260905180935 | 97 | 203 | 2.0 | 5.0 | 0.00 | 0.00 | 0.00 | 47 | 1013.1 |
| 20260905175915 | 95 | 113 | 2.0 | 4.0 | 0.00 | 0.00 | 0.00 | 49 | 1013.2 |
| 20260905174915 | 95 | 0 | 6.0 | 8.0 | 0.00 | 0.00 | 0.00 | 49 | 1013.3 |
| 20260905173916 | 94 | 225 | 4.0 | 6.0 | 0.00 | 0.00 | 0.00 | 50 | 1013.4 |
| 20260905172915 | 94 | 0 | 6.0 | 10.0 | 0.00 | 0.00 | 0.00 | 51 | 1013.7 |
| 20260905171915 | 94 | 135 | 5.0 | 9.0 | 0.00 | 0.00 | 0.00 | 52 | 1013.7 |
| 20260905170915 | 93 | 225 | 6.0 | 8.0 | 0.00 | 0.00 | 0.00 | 52 | 1013.8 |
| 20260905165935 | 93 | 248 | 2.0 | 4.0 | 0.00 | 0.00 | 0.00 | 53 | 1013.8 |
| 20260905164915 | 93 | 180 | 6.0 | 9.0 | 0.00 | 0.00 | 0.00 | 53 | 1013.8 |
| 20260905163917 | 93 | 135 | 2.0 | 4.0 | 0.00 | 0.00 | 0.00 | 55 | 1013.8 |
| 20260905162915 | 93 | 225 | 6.0 | 8.0 | 0.00 | 0.00 | 0.00 | 55 | 1014.0 |
| 20260905161917 | 93 | 158 | 2.0 | 4.0 | 0.00 | 0.00 | 0.00 | 55 | 1013.9 |
| 20260905160937 | 92 | 113 | 2.0 | 5.0 | 0.00 | 0.00 | 0.00 | 57 | 1013.9 |
| 20260905155917 | 91 | 248 | 4.0 | 6.0 | 0.00 | 0.00 | 0.00 | 58 | 1013.9 |
| 20260905154917 | 90 | 225 | 1.0 | 2.0 | 0.00 | 0.00 | 0.00 | 60 | 1013.9 |
| 20260905153917 | 89 | 293 | 2.0 | 2.0 | 0.00 | 0.00 | 0.00 | 60 | 1013.9 |
| 20260905152917 | 89 | 225 | 5.0 | 6.0 | 0.00 | 0.00 | 0.00 | 61 | 1013.9 |
| 20260905151917 | 89 | 270 | 2.0 | 4.0 | 0.00 | 0.00 | 0.00 | 61 | 1013.9 |
| 20260905150917 | 88 | 0 | 4.0 | 5.0 | 0.00 | 0.00 | 0.00 | 63 | 1013.8 |
| 20260905145917 | 88 | 248 | 5.0 | 6.0 | 0.00 | 0.00 | 0.00 | 65 | 1013.8 |
| 20260905144917 | 87 | 270 | 3.0 | 6.0 | 0.00 | 0.00 | 0.00 | 67 | 1013.7 |
| 20260905143917 | 86 | 0 | 5.0 | 7.0 | 0.00 | 0.00 | 0.00 | 67 | 1013.7 |
| 20260905142917 | 86 | 270 | 6.0 | 8.0 | 0.00 | 0.00 | 0.00 | 68 | 1013.8 |
| 20260905141917 | 85 | 225 | 7.0 | 9.0 | 0.00 | 0.00 | 0.00 | 70 | 1013.7 |
| 20260905140917 | 84 | 0 | 5.0 | 7.0 | 0.00 | 0.00 | 0.00 | 71 | 1013.7 |
| 20260905135917 | 84 | 270 | 5.0 | 6.0 | 0.00 | 0.00 | 0.00 | 72 | 1013.7 |
| 20260905134917 | 83 | 248 | 3.0 | 6.0 | 0.00 | 0.00 | 0.00 | 74 | 1013.7 |
| 20260905133917 | 82 | 225 | 5.0 | 7.0 | 0.00 | 0.00 | 0.00 | 74 | 1013.6 |
| 20260905132916 | 82 | 225 | 5.0 | 6.0 | 0.00 | 0.00 | 0.00 | 75 | 1013.6 |
| 20260905131917 | 81 | 225 | 3.0 | 5.0 | 0.00 | 0.00 | 0.00 | 75 | 1013.4 |
| 20260905130917 | 81 | 225 | 4.0 | 6.0 | 0.00 | 0.00 | 0.00 | 76 | 1013.3 |
| 20260905125917 | 81 | 225 | 3.0 | 5.0 | 0.00 | 0.00 | 0.00 | 76 | 1013.3 |
| 20260905124917 | 80 | 225 | 4.0 | 6.0 | 0.00 | 0.00 | 0.00 | 76 | 1013.3 |
| 20260905123916 | 80 | 225 | 3.0 | 4.0 | 0.00 | 0.00 | 0.00 | 76 | 1013.3 |
| 20260905122917 | 80 | 0.0 | 0.0 | 0.00 | 0.00 | 0.00 | 76 | 1013.2 | |
| 20260905121917 | 80 | 225 | 2.0 | 4.0 | 0.00 | 0.00 | 0.00 | 76 | 1012.9 |
| 20260905120917 | 80 | 225 | 2.0 | 4.0 | 0.00 | 0.00 | 0.00 | 76 | 1012.9 |
| 20260905115917 | 80 | 0.0 | 0.0 | 0.00 | 0.00 | 0.00 | 76 | 1012.8 | |
| 20260905114916 | 80 | 203 | 2.0 | 4.0 | 0.00 | 0.00 | 0.00 | 76 | 1012.8 |
| 20260905113916 | 79 | 0.0 | 0.0 | 0.00 | 0.00 | 0.00 | 77 | 1012.6 | |
| 20260905112916 | 79 | 0.0 | 0.0 | 0.00 | 0.00 | 0.00 | 76 | 1012.5 | |
| 20260905111916 | 79 | 0.0 | 0.0 | 0.00 | 0.00 | 0.00 | 76 | 1012.5 | |
| 20260905110916 | 79 | 0.0 | 0.0 | 0.00 | 0.00 | 0.00 | 76 | 1012.5 | |
| 20260905105916 | 80 | 203 | 3.0 | 4.0 | 0.00 | 0.00 | 0.00 | 75 | 1012.7 |